Total_Precipitation_Accumulation
0.27 0.20 0.19 0.25 0.33 0.22 0.14 0.20 0.19 0.15 0.15 0.07 0.08 0.13 0.22 0.07 0.03 0.03 0.11 0.14 0.31 0.33 0.27 0.37 0.42 0.40 0.42 0.41 0.39 0.33 0.31 0.35 0.36
0.42 0.27 0.12 0.15 0.20 0.26 0.25 0.18 0.14 0.14 0.11 0.09 0.11 0.12 0.09 0.03 0.03 0.04 0.09 0.22 0.36 0.31 0.25 0.28 0.31 0.36 0.49 0.55 0.62 0.75 0.74 0.70 0.55
0.47 0.28 0.15 0.12 0.12 0.19 0.34 0.36 0.26 0.20 0.11 0.11 0.13 0.12 0.12 0.10 0.04 0.04 0.05 0.11 0.11 0.13 0.20 0.19 0.22 0.26 0.30 0.43 0.59 0.58 0.55 0.61 0.69
0.43 0.28 0.17 0.14 0.18 0.25 0.36 0.39 0.33 0.27 0.21 0.20 0.17 0.13 0.11 0.08 0.03 0.03 0.05 0.09 0.08 0.14 0.15 0.19 0.23 0.23 0.23 0.34 0.40 0.40 0.41 0.49 0.52
0.29 0.17 0.12 0.22 0.26 0.32 0.33 0.32 0.34 0.34 0.27 0.25 0.20 0.14 0.16 0.07 0.02 0.02 0.04 0.09 0.09 0.13 0.19 0.25 0.28 0.33 0.36 0.36 0.33 0.33 0.36 0.46 0.53
0.17 0.08 0.09 0.17 0.25 0.30 0.31 0.29 0.28 0.23 0.17 0.19 0.15 0.14 0.07 0.02 0.02 0.02 0.03 0.05 0.09 0.13 0.18 0.20 0.29 0.35 0.39 0.38 0.32 0.29 0.29 0.26 0.32
0.17 0.12 0.10 0.11 0.19 0.21 0.24 0.27 0.30 0.19 0.07 0.04 0.08 0.07 0.02 0.01 0.01 0.01 0.01 0.14 0.21 0.19 0.20 0.25 0.22 0.25 0.29 0.28 0.25 0.26 0.27 0.32 0.38
0.15 0.16 0.09 0.09 0.10 0.07 0.10 0.13 0.13 0.10 0.11 0.11 0.07 0.05 0.07 0.08 0.08 0.09 0.07 0.19 0.28 0.28 0.30 0.33 0.32 0.26 0.25 0.28 0.30 0.33 0.31 0.33 0.37
0.18 0.16 0.15 0.12 0.12 0.11 0.13 0.16 0.14 0.17 0.15 0.14 0.16 0.10 0.09 0.12 0.14 0.11 0.14 0.13 0.25 0.26 0.37 0.46 0.45 0.56 0.53 0.48 0.47 0.34 0.32 0.32 0.27
0.26 0.23 0.25 0.23 0.38 0.25 0.16 0.19 0.24 0.24 0.25 0.26 0.26 0.26 0.17 0.19 0.20 0.16 0.23 0.20 0.14 0.29 0.35 0.45 0.61 0.71 0.69 0.91 0.81 0.56 0.38 0.28 0.23
0.40 0.40 0.40 0.38 0.40 0.50 0.45 0.40 0.41 0.36 0.34 0.31 0.35 0.35 0.39 0.37 0.31 0.25 0.28 0.30 0.16 0.21 0.32 0.40 0.58 0.80 0.78 0.88 1.04 0.99 0.74 0.52 0.40
0.29 0.31 0.31 0.29 0.47 0.68 0.72 0.59 0.48 0.41 0.50 0.47 0.53 0.47 0.46 0.41 0.39 0.39 0.31 0.29 0.23 0.15 0.24 0.42 0.55 0.69 0.83 1.00 1.15 1.34 1.43 1.47 1.25
0.23 0.19 0.21 0.36 0.54 0.55 0.59 0.64 0.55 0.44 0.42 0.38 0.52 0.54 0.51 0.47 0.42 0.42 0.45 0.31 0.25 0.25 0.17 0.32 0.56 0.85 0.91 1.39 1.58 1.75 1.51 1.86 1.93
0.35 0.31 0.24 0.39 0.38 0.40 0.50 0.55 0.58 0.75 0.72 0.52 0.43 0.46 0.53 0.55 0.57 0.52 0.48 0.51 0.48 0.30 0.26 0.29 0.40 0.82 1.35 1.54 1.78 2.11 2.37 1.93 2.12
0.30 0.42 0.55 0.58 0.56 0.49 0.61 0.72 0.75 0.80 0.89 1.02 0.97 0.78 0.51 0.47 0.56 0.68 0.71 0.63 0.77 1.02 0.86 0.76 0.88 0.73 0.86 1.42 1.74 2.37 3.74 4.39 2.89
0.46 0.36 0.46 0.58 0.59 0.67 0.65 0.66 0.69 0.78 0.90 1.22 1.20 1.16 1.32 1.30 1.06 0.96 1.08 1.11 1.04 1.27 1.94 2.34 2.60 2.50 2.26 1.40 1.49 2.33 4.23 5.48 4.97
0.81 0.50 0.51 0.49 0.43 0.44 0.50 0.56 0.66 0.60 0.76 0.84 0.89 0.92 0.87 0.92 1.07 1.36 1.73 1.88 2.18 2.02 2.14 2.15 2.65 2.76 2.93 2.38 2.10 1.90 2.09 2.87 3.09
1.41 1.31 1.22 1.00 0.82 0.80 0.78 0.96 1.38 1.23 1.11 1.32 1.39 1.04 0.84 0.68 0.78 0.94 0.86 1.08 1.13 1.20 1.25 1.07 1.01 0.91 0.86 0.84 1.00 1.53 1.28 1.44 1.79
2.29 2.13 1.89 1.67 1.44 1.38 1.45 1.50 1.63 1.76 1.72 1.67 1.45 1.17 0.96 0.79 0.55 0.54 0.72 0.63 0.67 0.59 0.59 0.40 0.31 0.31 0.39 0.40 0.35 0.71 1.61 1.91 2.21
2.19 2.28 2.47 2.41 2.63 2.69 2.51 2.30 2.03 1.82 1.79 1.64 1.43 1.30 1.23 0.98 0.77 0.51 0.44 0.38 0.32 0.26 0.22 0.19 0.21 0.22 0.29 0.35 0.50 0.70 1.01 1.34 1.44